Location: Observatory
(52.1446°N, 0.4624°W)
Time: 17:45:15
(UTC+00:00)

ISS - Pass Details

Date: 30 November 2021
Orbit: 417 x 422 km, 51.6° (Epoch: 06 December)

Event Time Altitude Azimuth Distance (km) Brightness Sun altitude
Rises 18:28:20 0° 279° (W) 2,380 1.4 -22.7°
Reaches altitude 10° 18:30:27 10° 276° (W) 1,513 0.1 -23.0°
Enters shadow 18:33:03 47° 252° (WSW) 574 -2.7 -23.4°
